[[{"header":{"parameterUnit":"m.s-1","parameterCategory":1,"la1":30.2991,"la2":30.254,"lo1":-89.0895,"lo2":-89.0444,"dy":0.0017,"dx":0.0017,"nx":28,"ny":28,"refTime":"2024-04-15T21:00:00:Z","depth":0,"parameterNumber":2,"parameterNumberName":"U-component_of_WINDS"},"data":[0,0,0,0,0,0,0,0,0,0,0,0,0,0,0,0,0,0,0,0,0,0,0,0,0,0,0,0,0,0,0,0,0,0,0,0,0,0,0,0,0,0,0,0,0,0,0,0,0,0,0,0,0,0,0,0,0,0,-1.7605,-1.7605,0,-1.7623,-1.7623,-1.7623,-1.7569,-1.7567,-1.7565,-1.7564,-1.7591,-1.7593,-1.7595,0,0,0,0,0,0,0,0,0,0,0,0,0,-1.7531,-1.7533,-1.7604,-1.7605,-1.7605,-1.7623,-1.7623,-1.7623,-1.7569,-1.7567,-1.7565,-1.7563,-1.759,-1.7593,-1.7595,0,0,0,0,0,0,0,0,0,0,0,0,0,-1.7558,-1.7534,-1.7604,-1.758,-1.7578,-1.7623,-1.7623,-1.7623,-1.7569,-1.7567,-1.7564,-1.7562,-1.7589,-1.7592,-1.7596,-1.7668,0,0,-1.7606,-1.7608,0,0,0,0,0,0,0,0,-1.7557,-1.7561,-1.7583,-1.7581,-1.7579,-1.7591,-1.7607,-1.7639,-1.757,-1.7573,-1.7563,-1.7561,-1.7593,-1.7596,-1.7605,-1.7669,-1.7671,-1.7607,-1.7609,-1.761,-1.7611,0,0,0,0,0,0,0,-1.7555,-1.756,-1.7612,-1.7584,-1.7581,-1.7571,-1.7572,-1.7613,-1.7597,-1.7572,-1.7568,-1.7571,-1.7592,-1.7602,-1.7606,-1.7671,-1.7607,-1.761,-1.7612,-1.7613,-1.7799,-1.7801,0,0,0,0,0,0,-1.7555,-1.7559,-1.7611,-1.7612,-1.7561,-1.7574,-1.7575,-1.759,-1.7597,-1.7595,-1.7573,-1.7568,-1.7598,-1.7602,-1.7607,-1.7693,-1.761,-1.7613,-1.7615,-1.7796,-1.7799,-1.7802,0,0,0,0,0,0,-1.7554,-1.756,-1.7611,-1.7584,-1.759,-1.7578,-1.7595,-1.7591,-1.7602,-1.7597,-1.7595,-1.7586,-1.7596,-1.7602,-1.7653,-1.7693,-1.7615,-1.7618,-1.7792,-1.7797,-1.7801,-1.7867,0,0,0,0,0,0,-1.7552,-1.756,-1.7585,-1.7585,-1.7592,-1.7654,-1.7597,-1.7594,-1.7607,-1.7601,-1.7609,-1.7608,-1.7594,-1.7648,-1.7657,-1.7697,-1.7621,-1.7789,-1.7794,-1.7799,-1.7861,-1.7873,-1.7883,0,0,0,0,0,-1.7549,-1.7604,-1.7587,-1.7593,-1.7622,-1.7657,-1.7661,-1.7642,-1.761,-1.7637,-1.7634,-1.7607,-1.7688,-1.7654,-1.7663,-1.7705,-1.7786,-1.7793,-1.7799,-1.7856,-1.787,-1.7883,0,0,0,0,0,0,-1.7611,-1.7604,-1.7584,-1.764,-1.7649,-1.7647,-1.768,-1.7657,-1.7677,-1.7671,-1.765,-1.7652,-1.7709,-1.7712,-1.7675,-1.7777,-1.7732,-1.7741,-1.7772,-1.7786,-1.7797,-1.7795,-1.7624,0,0,0,0,0,-1.7631,-1.7657,-1.765,-1.77,-1.7705,-1.7692,-1.7707,-1.7691,-1.7701,-1.7705,-1.7706,-1.772,-1.7748,-1.7767,-1.7793,-1.7861,-1.7864,-1.7895,-1.7906,-1.7915,-1.7923,-1.7962,-1.7976,-1.7823,-1.7823,-1.7823,0,0,-1.7673,-1.7672,-1.769,-1.7713,-1.7718,-1.7748,-1.7696,-1.773,-1.7753,-1.7711,-1.776,-1.7762,-1.7775,-1.7836,-1.7863,-1.7841,-1.7966,-1.7923,-1.793,-1.7933,-1.797,-1.7985,-1.7998,-1.7828,-1.7827,-1.7826,0,0,-1.7765,-1.7765,-1.7808,-1.7814,-1.7822,-1.7813,-1.7824,-1.7826,-1.7825,-1.7872,-1.7842,-1.7872,-1.792,-1.7931,-1.7944,-1.8042,-1.8019,-1.8052,-1.8109,-1.8148,-1.816,-1.817,-1.8208,-1.8221,-1.8059,-1.806,-1.806,0,-1.7816,-1.7857,-1.7834,-1.7869,-1.7882,-1.7843,-1.7888,-1.7897,-1.7914,-1.7925,-1.7899,-1.796,-1.7967,-1.8031,-1.8055,-1.8065,-1.808,-1.8051,-1.8159,-1.817,-1.818,-1.8215,-1.8229,-1.8064,-1.8063,-1.8063,-1.8062,0,-1.7922,-1.7952,-1.7986,-1.8001,-1.8017,-1.8058,-1.8043,-1.8063,-1.8047,-1.8042,-1.8093,-1.8099,-1.8127,-1.8141,-1.8126,-1.8204,-1.819,-1.8162,-1.8117,-1.8198,-1.8232,-1.8245,-1.8069,-1.8068,-1.8067,-1.8066,0,0,-1.8052,-1.8054,-1.8067,-1.8075,-1.8082,-1.8106,-1.8146,-1.817,-1.8189,-1.8203,-1.8239,-1.8282,-1.8256,-1.827,-1.8257,-1.8291,-1.8371,-1.8259,-1.8259,-1.8281,-1.8461,-1.8483,-1.8498,-1.8356,-1.8358,-1.836,-1.846,0,-1.8144,-1.8209,-1.819,-1.8258,-1.8287,-1.8252,-1.8288,-1.8298,-1.8295,-1.8322,-1.832,-1.8351,-1.8314,-1.8323,-1.8354,-1.8355,-1.8407,-1.8347,-1.8392,-1.8394,-1.839,-1.8515,-1.8538,-1.8632,-1.8473,-1.8475,-1.8477,0,-1.8259,-1.8275,-1.8345,-1.8349,-1.836,-1.8392,-1.8414,-1.8439,-1.8451,-1.8447,-1.8464,-1.8444,-1.8488,-1.8442,-1.8504,-1.8464,-1.8481,-1.8485,-1.8488,-1.8492,-1.8441,-1.8525,-1.8661,-1.8676,-1.8496,-1.8495,-1.8493,0,-1.8349,-1.8389,-1.8436,-1.8443,-1.8448,-1.8472,-1.8476,-1.8486,-1.8502,-1.8523,-1.8534,-1.8561,-1.8576,-1.8598,-1.8588,-1.8555,-1.8653,-1.8606,-1.8654,-1.8654,-1.8677,-1.8676,-1.8819,-1.8686,-1.8686,-1.8686,-1.8685,0,-1.8453,-1.8498,-1.8477,-1.8506,-1.8556,-1.8535,-1.8587,-1.8587,-1.8596,-1.8628,-1.86,-1.8631,-1.8615,-1.8646,-1.8639,-1.8693,-1.87,-1.87,-1.8698,-1.8703,-1.8704,-1.8715,-1.8709,-1.8689,-1.8689,-1.8688,-1.8687,0,-1.8562,-1.8549,-1.8599,-1.86,-1.8601,-1.8639,-1.8641,-1.867,-1.8666,-1.8706,-1.8715,-1.8709,-1.8744,-1.8736,-1.8775,-1.877,-1.8839,-1.8828,-1.8834,-1.8832,-1.8881,-1.8877,-1.9038,-1.9059,-1.8911,-1.8913,-1.8914,0,-1.863,-1.8664,-1.8668,-1.8685,-1.8691,-1.872,-1.8736,-1.8718,-1.8737,-1.8755,-1.8783,-1.8815,-1.884,-1.8899,-1.89,-1.8931,-1.8922,-1.8976,-1.8926,-1.8931,-1.8925,-1.8923,-1.8928,-1.8986,-1.8988,-1.8989,-1.899,0,-1.8753,-1.8745,-1.8768,-1.879,-1.881,-1.8827,-1.8842,-1.8859,-1.8843,-1.8866,-1.89,-1.8919,-1.8959,-1.8993,-1.9021,-1.9029,-1.9009,-1.9006,-1.9019,-1.9025,-1.9028,-1.9029,-1.8862,-1.9003,-1.9001,-1.9,-1.9,-1.8999,-1.8844,-1.8873,-1.8881,-1.8908,-1.8917,-1.8932,-1.896,-1.8959,-1.8986,-1.9014,-1.9003,-1.9044,-1.9059,-1.9095,-1.9106,-1.914,-1.912,-1.9138,-1.9143,-1.9149,-1.9155,-1.9022,-1.9145,-1.9145,-1.9144,-1.9144,-1.9144,0,-1.8967,-1.897,-1.8996,-1.9016,-1.9039,-1.9015,-1.9031,-1.9052,-1.9087,-1.9101,-1.9126,-1.9167,-1.92,-1.9204,-1.9237,-1.9263,-1.9255,-1.9272,-1.9271,-1.9274,-1.917,-1.9156,-1.9279,-1.9279,-1.9279,-1.9279,-1.9279,-1.9279,-1.9033,-1.9081,-1.9075,-1.9128,-1.9132,-1.9169,-1.918,-1.9196,-1.9207,-1.9253,-1.9279,-1.9281,-1.9293,-1.9326,-1.9356,-1.9357,-1.9371,-1.9393,-1.9391,-1.9294,-1.9281,-1.9268,-1.9255,-1.9396,-1.9396,-1.9491,-1.9492,-1.9493]},{"header":{"parameterUnit":"m.s-1","parameterCategory":1,"la1":30.2991,"la2":30.254,"lo1":-89.0895,"lo2":-89.0444,"dy":0.0017,"dx":0.0017,"nx":28,"ny":28,"refTime":"2024-04-15T21:00:00:Z","depth":0,"parameterNumber":3,"parameterNumberName":"V-component_of_WINDS"},"data":[0,0,0,0,0,0,0,0,0,0,0,0,0,0,0,0,0,0,0,0,0,0,0,0,0,0,0,0,0,0,0,0,0,0,0,0,0,0,0,0,0,0,0,0,0,0,0,0,0,0,0,0,0,0,0,0,0,0,3.28,3.2798,0,3.2571,3.2569,3.2566,3.244,3.244,3.2439,3.2439,3.2196,3.219,3.2183,0,0,0,0,0,0,0,0,0,0,0,0,0,3.3118,3.3113,3.28,3.2797,3.2795,3.2572,3.2568,3.2565,3.244,3.244,3.2439,3.2439,3.2198,3.219,3.2183,0,0,0,0,0,0,0,0,0,0,0,0,0,3.2944,3.3112,3.2801,3.2705,3.2695,3.2572,3.2568,3.2564,3.244,3.244,3.2439,3.2439,3.22,3.2191,3.2182,3.2134,0,0,3.2154,3.2149,0,0,0,0,0,0,0,0,3.2954,3.2932,3.2722,3.2712,3.2699,3.2534,3.2591,3.242,3.244,3.2536,3.2439,3.2438,3.2308,3.229,3.2247,3.2123,3.2112,3.2153,3.2147,3.2143,3.214,0,0,0,0,0,0,0,3.2966,3.2941,3.2709,3.2719,3.2705,3.267,3.2645,3.2558,3.2427,3.2528,3.2518,3.2493,3.2301,3.2257,3.2241,3.2109,3.2153,3.2145,3.2139,3.2135,3.193,3.193,0,0,0,0,0,0,3.2995,3.2952,3.2717,3.2702,3.2828,3.2665,3.2637,3.2587,3.2428,3.2403,3.2494,3.2488,3.2273,3.2252,3.2232,3.2163,3.2143,3.2134,3.2129,3.193,3.193,3.193,0,0,0,0,0,0,3.3002,3.2975,3.2726,3.2825,3.279,3.266,3.2606,3.2583,3.2538,3.2402,3.2377,3.2473,3.2272,3.2245,3.2159,3.2153,3.213,3.2122,3.193,3.193,3.193,3.2028,0,0,0,0,0,0,3.3012,3.2979,3.2962,3.2825,3.2786,3.266,3.2605,3.2579,3.2524,3.2514,3.2376,3.2353,3.2269,3.2174,3.215,3.214,3.2115,3.1929,3.193,3.193,3.2024,3.2031,3.2037,0,0,0,0,0,3.3024,3.2997,3.2962,3.2934,3.2762,3.266,3.2637,3.2544,3.2524,3.2504,3.2416,3.2357,3.2158,3.2166,3.2138,3.2125,3.1929,3.193,3.193,3.2022,3.203,3.2037,0,0,0,0,0,0,3.3132,3.2977,3.2936,3.2865,3.2778,3.264,3.2611,3.2556,3.247,3.2464,3.235,3.2319,3.2244,3.2176,3.2188,3.2069,3.2037,3.2032,3.2117,3.2123,3.213,3.2147,3.2107,0,0,0,0,0,3.3149,3.3083,3.2949,3.2899,3.2857,3.2743,3.2695,3.2631,3.2534,3.2495,3.2401,3.2307,3.2222,3.2169,3.2084,3.2014,3.1981,3.1991,3.1998,3.2004,3.2,3.1955,3.1957,3.1931,3.1931,3.1931,0,0,3.3181,3.3088,3.3052,3.2919,3.2843,3.2773,3.2712,3.2641,3.2587,3.2483,3.2397,3.2325,3.2211,3.2133,3.2094,3.2074,3.2,3.2004,3.201,3.2002,3.1955,3.1958,3.1961,3.1931,3.1931,3.1931,0,0,3.3203,3.3128,3.3077,3.3003,3.289,3.2813,3.2802,3.2671,3.262,3.2533,3.2453,3.2385,3.2244,3.2166,3.2107,3.21,3.2041,3.2075,3.2107,3.2065,3.2067,3.2068,3.2063,3.2063,3.2072,3.2072,3.2072,0,3.3256,3.3151,3.3056,3.299,3.2932,3.2838,3.2783,3.2715,3.2579,3.254,3.252,3.234,3.2257,3.2158,3.2156,3.2113,3.2092,3.2089,3.2075,3.2075,3.2075,3.2068,3.2067,3.2077,3.2076,3.2076,3.2075,0,3.322,3.3149,3.312,3.2995,3.2934,3.2874,3.2767,3.2715,3.2657,3.2582,3.2492,3.2389,3.2281,3.2253,3.2194,3.2145,3.2136,3.2098,3.2062,3.2084,3.2076,3.2073,3.2084,3.2082,3.208,3.2079,0,0,3.3304,3.3127,3.3118,3.3059,3.2928,3.2868,3.2803,3.27,3.2657,3.2566,3.2506,3.2388,3.2351,3.2285,3.2217,3.218,3.2177,3.2145,3.214,3.2153,3.2113,3.2142,3.2141,3.2139,3.2138,3.2137,3.2122,0,3.3305,3.3187,3.3099,3.3012,3.2943,3.2852,3.2794,3.2705,3.2633,3.2561,3.2479,3.2397,3.2356,3.2316,3.2275,3.2187,3.2167,3.2186,3.2078,3.2075,3.2108,3.2137,3.2167,3.2158,3.2119,3.2118,3.2118,0,3.3291,3.3207,3.3114,3.2989,3.2956,3.2907,3.2804,3.2738,3.2634,3.2583,3.251,3.244,3.2362,3.2337,3.2227,3.2242,3.2192,3.2141,3.2139,3.2123,3.2097,3.212,3.2153,3.2151,3.2112,3.2112,3.2113,0,3.3359,3.3222,3.3148,3.31,3.2953,3.292,3.2856,3.2752,3.2695,3.2604,3.2566,3.2467,3.2412,3.2335,3.2239,3.2229,3.2138,3.2104,3.2091,3.2093,3.2074,3.2076,3.2098,3.2046,3.2046,3.2046,3.2046,0,3.3369,3.3315,3.3176,3.3131,3.3067,3.2965,3.2903,3.2831,3.274,3.2676,3.259,3.2531,3.2408,3.2333,3.2257,3.2176,3.2153,3.2107,3.2087,3.2114,3.2119,3.2078,3.2075,3.2046,3.2046,3.2046,3.2046,0,3.3433,3.3339,3.3252,3.312,3.3085,3.3044,3.2929,3.2879,3.2803,3.2723,3.2698,3.2576,3.2484,3.238,3.2253,3.2201,3.2125,3.2097,3.2161,3.2149,3.2141,3.2142,3.2134,3.2127,3.2084,3.2085,3.2085,0,3.3445,3.3402,3.3266,3.3219,3.3159,3.3083,3.3025,3.2923,3.2865,3.2743,3.2708,3.2609,3.2525,3.2381,3.2279,3.218,3.2148,3.2152,3.2132,3.216,3.2145,3.2148,3.2142,3.2157,3.2158,3.2159,3.216,0,3.3475,3.3431,3.3353,3.3258,3.3192,3.3111,3.3026,3.2992,3.2871,3.281,3.2716,3.2652,3.2522,3.2424,3.2313,3.2243,3.218,3.2167,3.2158,3.2184,3.2222,3.2199,3.2174,3.2167,3.2167,3.2166,3.2166,3.2165,3.3511,3.3468,3.3366,3.3281,3.3208,3.3131,3.3077,3.2995,3.2916,3.2804,3.2747,3.2653,3.2547,3.2392,3.2324,3.2247,3.2227,3.2215,3.2211,3.2209,3.2215,3.2237,3.2226,3.2226,3.2226,3.2225,3.2225,0,3.3535,3.3465,3.3389,3.3275,3.3207,3.3158,3.3061,3.3006,3.2926,3.2834,3.2754,3.2644,3.2549,3.244,3.2337,3.2295,3.2264,3.2271,3.2272,3.2257,3.2241,3.2258,3.2299,3.2299,3.2299,3.2299,3.2299,3.2299,3.354,3.3464,3.3407,3.3292,3.322,3.313,3.3079,3.3006,3.2932,3.2815,3.2737,3.2668,3.2567,3.2456,3.2365,3.2335,3.23,3.2316,3.2278,3.2264,3.2258,3.2252,3.2267,3.231,3.231,3.2299,3.2299,3.2299]}]]